Regional Weather Roundup
Issued by NWS Albany, NY

Current Version | Previous Version | Graphics & Text | Print | Product List | Glossary Off
Versions: 1 2 3 4 5 6 7 8 9 10 11 12 13 14 15 16 17 18 19 20 21 22 23 24 25 26 27 28 29 30 31 32 33 34 35 36 37 38 39 40 41 42 43 44 45 46 47 48

000
ASUS41 KALY 050510
RWRALY

NEW YORK STATE HOURLY WEATHER ROUNDUP
NATIONAL WEATHER SERVICE ALBANY NY
100 AM EDT SUN JUL 05 2015

NOTE: "FAIR" INDICATES FEW OR NO CLOUDS BELOW 12,000 FEET WITH NO
SIGNIFICANT WEATHER AND/OR NO OBSTRUCTIONS TO VISIBILITY.

NYZ032-033-038>043-046>054-057>066-NYZ062>081-050600-
EAST


CITY           SKY/WX    TMP DP  RH WIND       PRES   REMARKS
ALBANY         PTCLDY    60  58  92 CALM      30.03R FOG
GLENS FALLS    CLOUDY    62  60  93 CALM      30.02S FOG
POUGHKEEPSIE   FOG       59  57  93 CALM      30.03R VSB 1
NEWBURGH       PTCLDY    61  61 100 CALM      30.05R
MONTGOMERY     CLEAR     57  56  96 CALM      30.05R FOG
WHITE PLAINS   CLEAR     63  59  87 NW3       30.04R
ISLIP          CLOUDY    65  55  70 CALM      30.02R
NEW YORK CITY  MOCLDY    71  60  68 SW5       30.03R
CENTRAL PARK   PTCLDY    69  58  67 CALM      30.06R
$$

NYZ005>009-017-018-044>046-055-056-050600-
CENTRAL


CITY           SKY/WX    TMP DP  RH WIND       PRES   REMARKS
FULTON         CLEAR     55  52  89 CALM      30.03R
SYRACUSE       PTCLDY    64  58  80 S3        30.03R
ROME           MOCLDY    65  60  84 SW3       30.05R
ELMIRA         FOG       62  62 100 W3        30.05S VSB 1/4
BINGHAMTON     CLEAR     59  58  96 S3        30.07R FOG
MONTICELLO     CLOUDY    61  59  94 CALM      30.08S
$$

NYZ026>034-041>043-050600-
NORTH


CITY           SKY/WX    TMP DP  RH WIND       PRES   REMARKS
WATERTOWN      CLOUDY    60  54  80 S5        30.01R
FORT DRUM      NOT AVBL
MASSENA        MOCLDY    62  59  90 SW7       29.97R
SARANAC LAKE   FOG       54  54 100 CALM      30.01S VSB 1/4
PLATTSBURGH    PTCLDY    59  59 100 S3        29.96F FOG
$$

NYZ001>004-010>016-019>021-050600-
WEST


CITY           SKY/WX    TMP DP  RH WIND       PRES   REMARKS
NIAGARA FALLS  CLEAR     63  59  87 SW8       30.05R
BUFFALO        CLEAR     63  55  75 S8        30.06R
DUNKIRK        CLEAR     61  54  77 S7        30.08R
JAMESTOWN      CLEAR     57  52  82 CALM      30.12R
WELLSVILLE     CLEAR     58  54  86 MISG      30.12R
ROCHESTER      CLEAR     60  54  80 SW6       30.05R
PENN YAN       FOG       63  62  97 SW5       30.06R VSB 1/2
$$

             KEY
       WCI = WIND CHILL INDEX
       VSB = VISIBILITY
       HX  = HEAT INDEX
$$



USA.gov is the U.S. government's official web portal to all federal, state and local government web resources and services.